Hourly Data Report for July 02, 2003

SHERBROOKE A
QUEBEC

45°26'00.000" N
71°41'00.000" W
241.40 m
7028124
71610
YSC

Download Data

Hourly Data (July 2003)
Hourly Data Report for July 2, 2003
TIME
LST
Temp Definition
°C
Dew Point Definition
°C
Rel Hum Definition
%
Precip. Amount Definition
mm

Wind Dir Definition
10's deg

Wind Spd Definition
km/h
Visibility Definition
km
Stn Press Definition
kPa
Hmdx Definition


Wind Chill Definition


Weather Definition


00:00 13.0 12.7 98     0 1.0 98.69      
01:00 13.5 13.2 98     0 5.6 98.69     Rain
02:00 13.6 13.4 99     0 8.0 98.68      
03:00 13.5 13.2 98     0 9.7 98.70      
04:00 13.5 13.2 98   7 4 9.7 98.70      
05:00 14.2 13.8 97     0 15.0 98.75      
06:00 14.5 14.0 97   16 6 15.0 98.73      
07:00 15.5 14.9 96   19 4 24.1 98.72     Cloudy
08:00 16.7 15.5 93     0 19.3 98.73     Mostly Cloudy
09:00 17.4 15.1 86   23 4 24.1 98.72     Mostly Cloudy
10:00 18.5 15.1 81   15 4 24.1 98.69     Mostly Cloudy
11:00 20.8 15.6 72   20 4 24.1 98.67 25   Mostly Cloudy
12:00 21.3 15.3 69   13 6 24.1 98.59 25   Mostly Cloudy
13:00 23.7 16.2 63   20 11 24.1 98.54 28   Mainly Clear
14:00 24.3 16.5 62   26 7 24.1 98.45 29   Mainly Clear
15:00 23.8 15.5 60   23 13 24.1 98.34 28   Mostly Cloudy
16:00 24.0 15.2 58   22 9 24.1 98.29 28   Mainly Clear
17:00 25.0 15.2 55   22 11 15.0 98.22 29    
18:00 23.7 15.4 60   21 7 15.0 98.21 28    
19:00 21.7 15.1 66   17 7 15.0 98.18 26    
20:00 19.8 15.1 74   16 6 15.0 98.16      
21:00 20.1 14.8 72   20 4 15.0 98.16      
22:00 19.5 15.0 75   20 4 15.0 98.14      
23:00 18.3 14.4 78   18 4 15.0 98.12      

Notes on Data Quality.

Legend

  • E = Estimated
  • M = Missing
  • NA = Not Available*
  • [empty] = Indicates an unobserved value
Date modified: